TimeMDT,TemperatureF,Dew PointF,Humidity,Sea Level PressureIn,VisibilityMPH,Wind Direction,Wind SpeedMPH,Gust SpeedMPH,PrecipitationIn,Events,Conditions,WindDirDegrees,DateUTC
12:48 AM,28.0,19.9,72,30.39,-9999.0,NNE,10.4,-,N/A,,Unknown,30,2013-04-22 06:48:00
1:48 AM,27.0,19.9,75,30.41,-9999.0,ENE,6.9,-,N/A,,Unknown,60,2013-04-22 07:48:00
2:48 AM,26.1,19.0,75,30.43,-9999.0,ENE,4.6,-,N/A,,Unknown,60,2013-04-22 08:48:00
3:48 AM,23.0,19.0,85,30.44,-9999.0,NNE,5.8,-,N/A,,Unknown,20,2013-04-22 09:48:00
4:48 AM,21.0,17.1,85,30.47,-9999.0,North,3.5,-,N/A,,Unknown,360,2013-04-22 10:48:00
5:48 AM,21.0,17.1,85,30.48,-9999.0,NNW,4.6,-,N/A,,Unknown,340,2013-04-22 11:48:00
6:48 AM,23.0,18.0,81,30.49,-9999.0,NNW,8.1,-,N/A,,Unknown,340,2013-04-22 12:48:00
7:48 AM,26.1,17.1,69,30.52,-9999.0,North,9.2,-,N/A,,Unknown,350,2013-04-22 13:48:00
8:48 AM,28.0,12.9,53,30.53,-9999.0,North,9.2,-,N/A,,Unknown,350,2013-04-22 14:48:00
9:48 AM,28.9,12.0,49,30.54,-9999.0,NNW,13.8,-,N/A,,Unknown,340,2013-04-22 15:48:00
11:48 AM,30.9,12.9,47,30.55,-9999.0,NNW,8.1,-,N/A,,Unknown,340,2013-04-22 17:48:00
12:48 PM,35.1,15.1,44,30.53,-9999.0,NW,9.2,-,N/A,,Unknown,310,2013-04-22 18:48:00
1:48 PM,35.1,14.0,42,30.52,-9999.0,NW,10.4,18.4,N/A,,Unknown,320,2013-04-22 19:48:00
2:48 PM,37.0,16.0,42,30.51,-9999.0,NW,8.1,-,N/A,,Unknown,320,2013-04-22 20:48:00
3:48 PM,37.0,15.1,41,30.50,-9999.0,NW,9.2,-,N/A,,Unknown,320,2013-04-22 21:48:00
4:48 PM,37.9,14.0,38,30.48,-9999.0,NW,8.1,-,N/A,,Unknown,310,2013-04-22 22:48:00
5:48 PM,36.0,14.0,41,30.48,-9999.0,NW,11.5,-,N/A,,Unknown,310,2013-04-22 23:48:00
6:48 PM,36.0,15.1,43,30.47,-9999.0,NW,9.2,-,N/A,,Unknown,310,2013-04-23 00:48:00
7:48 PM,33.1,18.0,54,30.46,-9999.0,NNW,5.8,-,N/A,,Unknown,330,2013-04-23 01:48:00
8:48 PM,28.0,21.0,75,30.47,-9999.0,Calm,Calm,-,N/A,,Unknown,0,2013-04-23 02:48:00
9:48 PM,25.0,19.0,78,30.48,-9999.0,Calm,Calm,-,N/A,,Unknown,0,2013-04-23 03:48:00
10:48 PM,25.0,19.0,78,30.46,-9999.0,WNW,3.5,-,N/A,,Unknown,290,2013-04-23 04:48:00
11:48 PM,25.0,19.0,78,30.45,-9999.0,Calm,Calm,-,N/A,,Unknown,0,2013-04-23 05:48:00